Regional Weather Roundup
Issued by NWS

Home | Current Version | Previous Version | Graphics & Text | Print | Product List | Glossary Off
Versions: 1 2 3 4 5 6 7 8 9 10 11 12 13 14 15 16 17 18 19 20 21 22 23 24 25 26 27 28 29 30 31 32 33 34 35 36 37 38 39 40 41 42 43 44 45 46 47 48 49 50

000
ASUS43 KLSX 031007
RWRMO

WEATHER SUMMARY FOR MISSOURI
NATIONAL WEATHER SERVICE SPRINGFIELD MO
500 AM CDT WED JUN 03 2015

NOTE: "FAIR" INDICATES FEW OR NO CLOUDS BELOW 12,000 FEET WITH NO
       SIGNIFICANT WEATHER AND/OR OBSTRUCTIONS TO VISIBILITY.
       CURRENT SKY AND/OR WEATHER CONDITIONS ARE NOT AVAILABLE FOR
       CHILLICOTHE AND FARMINGTON.

MOZ001>031-035>038-043-044-053-054-031100-
...NORTHERN AND WESTERN MISSOURI...

CITY           SKY/WX    TMP DP  RH WIND       PRES   REMARKS
KANSAS CTY INT MOCLDY    64  61  90 SE12      29.91F
KANSAS C DTWN  CLOUDY    67  59  75 E7        29.91F
LEE`S SUMMIT   CLOUDY    64  59  83 SE6       29.93F
ST JOSEPH      MOCLDY    64  59  83 SE8       29.89F
CHILLICOTHE      N/A     63  57  81 SE6       29.96F
KIRKSVILLE     CLEAR     56  55  97 S7        30.00S

$$
MOZ066>068-077>081-088>096-101>105-031100-
...SOUTHWEST MISSOURI...

CITY           SKY/WX    TMP DP  RH WIND       PRES   REMARKS
SPRINGFIELD    CLOUDY    62  59  90 SE10      29.99S
JOPLIN         CLEAR     66  63  90 SE8       29.95F

$$
MOZ032>034-039>042-045>050-055>058-069>072-031100-
...CENTRAL MISSOURI...

CITY           SKY/WX    TMP DP  RH WIND       PRES   REMARKS
COLUMBIA       PTCLDY    56  55  97 SE6       30.01S
JEFFERSON CITY MOCLDY    57  55  93 E6        30.01S
ROLLA          MOCLDY    54  53  97 S7        30.01S
SEDALIA        CLOUDY    61  57  87 SE9       29.98F
WHITEMAN AFB   MOCLDY    62  58  89 S7        29.95S
WARRENSBURG    CLOUDY    63  57  82 SE7       29.94F
OSAGE BEACH    CLOUDY    57  54  88 S6        30.00S

$$
MOZ051-052-059>065-031100-
...EAST CENTRAL MISSOURI...

CITY           SKY/WX    TMP DP  RH WIND       PRES   REMARKS
ST LOUIS INTL  MOCLDY    61  54  77 S3        30.04S
SPIRIT OF STL  CLOUDY    59  58  96 CALM      30.03R
ST CHARLES     PTCLDY    56  55  97 E3        30.03S

$$
MOZ072>076-082>087-097>100-106>115-031100-
...SOUTH CENTRAL AND SOUTHEAST MISSOURI...

CITY           SKY/WX    TMP DP  RH WIND       PRES   REMARKS
CAPE GIRARDEAU CLOUDY    62  59  90 CALM      30.03S
FARMINGTON     CLOUDY    59  55  88 S6        30.08R
POPLAR BLUFF   CLEAR     56  54  93 CALM      30.03R FOG
WEST PLAINS    CLOUDY    57  54  89 CALM      30.04F

$$


USA.gov is the U.S. government's official web portal to all federal, state and local government web resources and services.